• în România
  • Lista ţărilor
  • Pe 7 zile
  • Temperatura apei
  • Hartă satelitară
  • Meteo pe hartă
  • Widget-uri
  • user-avatar
    Intrare

    Meteo pe oră la Oktyabrskiy Gorodok

    Astăzi, 25 Iunie, Luni

    Timp Temperatura Precipitaţii Vânt Presiune Umiditate
    00:00 +21°C° 0 mm 2 m/s 744 mmHg 65%
    01:00 +22°C° 0 mm 1 m/s 744 mmHg 69%
    02:00 +21°C° 0 mm 1 m/s 744 mmHg 73%
    03:00 +20°C° 0 mm 1 m/s 744 mmHg 77%
    04:00 +21°C° 0 mm 1 m/s 744 mmHg 76%
    05:00 +22°C° 0 mm 1 m/s 745 mmHg 75%
    06:00 +23°C° 0 mm 1 m/s 745 mmHg 74%
    07:00 +24°C° 0 mm 1 m/s 745 mmHg 69%
    08:00 +26°C° 0 mm 1 m/s 745 mmHg 64%
    09:00 +27°C° 0 mm 1 m/s 746 mmHg 59%
    10:00 +29°C° 0 mm 1 m/s 746 mmHg 54%
    11:00 +30°C° 0 mm 1 m/s 746 mmHg 50%
    12:00 +31°C° 0 mm 1 m/s 746 mmHg 46%
    13:00 +31°C° 0 mm 1 m/s 746 mmHg 45%
    14:00 +32°C° 0 mm 1 m/s 746 mmHg 43%
    15:00 +32°C° 0 mm 1 m/s 746 mmHg 41%
    16:00 +32°C° 0,1 mm 2 m/s 746 mmHg 46%
    17:00 +31°C° 0,1 mm 2 m/s 746 mmHg 51%
    18:00 +30°C° 0,1 mm 2 m/s 746 mmHg 55%
    19:00 +28°C° 0,2 mm 3 m/s 746 mmHg 64%
    20:00 +26°C° 0,2 mm 3 m/s 746 mmHg 72%
    21:00 +24°C° 0,2 mm 3 m/s 746 mmHg 80%
    22:00 +22°C° 0,4 mm 3 m/s 746 mmHg 83%
    23:00 +21°C° 0,4 mm 3 m/s 746 mmHg 86%

    Mâine, 26 Iunie, Marţi

    Timp Temperatura Precipitaţii Vânt Presiune Umiditate
    00:00 +21°C° 0,4 mm 3 m/s 746 mmHg 88%
    01:00 +20°C° 0,2 mm 3 m/s 747 mmHg 89%
    02:00 +20°C° 0,2 mm 3 m/s 747 mmHg 89%
    03:00 +20°C° 0,2 mm 3 m/s 747 mmHg 89%
    04:00 +21°C° 0 mm 2 m/s 747 mmHg 87%
    05:00 +21°C° 0 mm 2 m/s 747 mmHg 84%
    06:00 +23°C° 0 mm 2 m/s 747 mmHg 81%
    07:00 +25°C° 0 mm 2 m/s 747 mmHg 73%
    08:00 +27°C° 0 mm 2 m/s 747 mmHg 65%
    09:00 +29°C° 0 mm 2 m/s 747 mmHg 57%
    10:00 +30°C° 0 mm 2 m/s 747 mmHg 52%
    11:00 +31°C° 0 mm 3 m/s 747 mmHg 47%
    12:00 +33°C° 0 mm 3 m/s 747 mmHg 43%
    13:00 +34°C° 0 mm 3 m/s 746 mmHg 41%
    14:00 +34°C° 0 mm 2 m/s 746 mmHg 40%
    15:00 +35°C° 0 mm 2 m/s 746 mmHg 39%
    16:00 +34°C° 0 mm 2 m/s 746 mmHg 43%
    17:00 +32°C° 0 mm 2 m/s 746 mmHg 46%
    18:00 +32°C° 0 mm 2 m/s 746 mmHg 50%
    19:00 +30°C° 0 mm 2 m/s 746 mmHg 54%
    20:00 +28°C° 0 mm 2 m/s 746 mmHg 58%
    21:00 +26°C° 0 mm 2 m/s 746 mmHg 62%
    22:00 +26°C° 0,1 mm 3 m/s 746 mmHg 66%
    23:00 +25°C° 0,1 mm 3 m/s 746 mmHg 70%

    Poimâine, 27 Iunie, Miercuri

    Timp Temperatura Precipitaţii Vânt Presiune Umiditate
    00:00 +24°C° 0,1 mm 3 m/s 746 mmHg 75%
    01:00 +22°C° 0,4 mm 3 m/s 746 mmHg 79%
    02:00 +22°C° 0,4 mm 3 m/s 746 mmHg 83%
    03:00 +21°C° 0,4 mm 3 m/s 746 mmHg 88%
    04:00 +22°C° 0 mm 3 m/s 746 mmHg 86%
    05:00 +22°C° 0 mm 3 m/s 746 mmHg 84%
    06:00 +24°C° 0 mm 3 m/s 746 mmHg 82%
    07:00 +26°C° 0,3 mm 3 m/s 746 mmHg 77%
    08:00 +27°C° 0,3 mm 3 m/s 747 mmHg 72%
    09:00 +29°C° 0,3 mm 3 m/s 747 mmHg 67%
    10:00 +30°C° 0,1 mm 4 m/s 747 mmHg 62%
    11:00 +30°C° 0,1 mm 4 m/s 746 mmHg 58%
    12:00 +32°C° 0,1 mm 4 m/s 746 mmHg 53%
    13:00 +32°C° 0,1 mm 4 m/s 746 mmHg 52%
    14:00 +33°C° 0,1 mm 4 m/s 746 mmHg 51%
    15:00 +33°C° 0,1 mm 4 m/s 746 mmHg 50%
    16:00 +31°C° 0,1 mm 3 m/s 746 mmHg 54%
    17:00 +31°C° 0,1 mm 3 m/s 746 mmHg 57%
    18:00 +30°C° 0,1 mm 3 m/s 746 mmHg 61%
    19:00 +28°C° 0,1 mm 3 m/s 746 mmHg 67%
    20:00 +27°C° 0,1 mm 3 m/s 746 mmHg 73%
    21:00 +25°C° 0,1 mm 3 m/s 746 mmHg 79%
    22:00 +24°C° 0 mm 3 m/s 746 mmHg 81%
    23:00 +22°C° 0 mm 3 m/s 746 mmHg 83%

    28 Iunie, Joi

    Timp Temperatura Precipitaţii Vânt Presiune Umiditate
    00:00 +22°C° 0 mm 3 m/s 746 mmHg 85%
    01:00 +21°C° 0,1 mm 2 m/s 746 mmHg 86%
    02:00 +21°C° 0,1 mm 2 m/s 746 mmHg 88%
    03:00 +21°C° 0,1 mm 2 m/s 746 mmHg 90%
    04:00 +21°C° 0 mm 3 m/s 746 mmHg 87%
    05:00 +22°C° 0 mm 3 m/s 746 mmHg 84%
    06:00 +22°C° 0 mm 3 m/s 746 mmHg 81%
    07:00 +25°C° 0 mm 4 m/s 746 mmHg 75%
    08:00 +26°C° 0 mm 4 m/s 746 mmHg 69%
    09:00 +28°C° 0 mm 4 m/s 746 mmHg 63%
    10:00 +28°C° 0 mm 4 m/s 746 mmHg 59%
    11:00 +29°C° 0 mm 4 m/s 746 mmHg 56%
    12:00 +30°C° 0 mm 4 m/s 746 mmHg 52%
    13:00 +32°C° 0 mm 4 m/s 746 mmHg 51%
    14:00 +32°C° 0 mm 4 m/s 746 mmHg 51%
    15:00 +32°C° 0 mm 4 m/s 746 mmHg 50%
    16:00 +30°C° 0,1 mm 4 m/s 746 mmHg 54%
    17:00 +30°C° 0,1 mm 4 m/s 745 mmHg 59%
    18:00 +29°C° 0,1 mm 4 m/s 745 mmHg 63%
    19:00 +27°C° 0 mm 4 m/s 746 mmHg 66%
    20:00 +25°C° 0 mm 4 m/s 746 mmHg 68%
    21:00 +23°C° 0 mm 4 m/s 746 mmHg 71%
    22:00 +22°C° 0,1 mm 4 m/s 746 mmHg 73%
    23:00 +21°C° 0,1 mm 3 m/s 746 mmHg 74%

    29 Iunie, Vineri

    Timp Temperatura Precipitaţii Vânt Presiune Umiditate
    00:00 +20°C° 0,1 mm 3 m/s 746 mmHg 76%
    01:00 +20°C° 0 mm 3 m/s 746 mmHg 77%
    02:00 +19°C° 0 mm 3 m/s 746 mmHg 77%
    03:00 +18°C° 0 mm 3 m/s 746 mmHg 78%
    04:00 +19°C° 0 mm 3 m/s 746 mmHg 76%
    05:00 +19°C° 0 mm 3 m/s 746 mmHg 74%
    06:00 +20°C° 0 mm 4 m/s 746 mmHg 72%
    07:00 +21°C° 0 mm 4 m/s 746 mmHg 66%
    08:00 +23°C° 0 mm 4 m/s 746 mmHg 60%
    09:00 +26°C° 0 mm 4 m/s 746 mmHg 54%
    10:00 +27°C° 0 mm 4 m/s 746 mmHg 50%
    11:00 +28°C° 0 mm 4 m/s 746 mmHg 47%
    12:00 +28°C° 0 mm 4 m/s 745 mmHg 44%
    13:00 +29°C° 0 mm 4 m/s 745 mmHg 43%
    14:00 +29°C° 0 mm 4 m/s 745 mmHg 42%
    15:00 +29°C° 0 mm 3 m/s 744 mmHg 41%
    16:00 +29°C° 0 mm 3 m/s 744 mmHg 44%
    17:00 +28°C° 0 mm 3 m/s 744 mmHg 48%
    18:00 +28°C° 0 mm 3 m/s 744 mmHg 52%
    19:00 +26°C° 0 mm 3 m/s 744 mmHg 54%
    20:00 +24°C° 0 mm 3 m/s 744 mmHg 56%
    21:00 +22°C° 0 mm 3 m/s 744 mmHg 58%
    22:00 +21°C° 0 mm 3 m/s 744 mmHg 61%
    23:00 +20°C° 0 mm 3 m/s 744 mmHg 63%

    30 Iunie, Sâmbătă

    Timp Temperatura Precipitaţii Vânt Presiune Umiditate
    00:00 +20°C° 0 mm 3 m/s 743 mmHg 65%
    01:00 +19°C° 0 mm 3 m/s 743 mmHg 69%
    02:00 +19°C° 0 mm 3 m/s 743 mmHg 73%
    03:00 +19°C° 0 mm 3 m/s 743 mmHg 77%
    04:00 +19°C° 0 mm 3 m/s 743 mmHg 76%
    05:00 +20°C° 0 mm 3 m/s 743 mmHg 74%
    06:00 +21°C° 0 mm 4 m/s 743 mmHg 73%
    07:00 +23°C° 0 mm 4 m/s 744 mmHg 68%
    08:00 +25°C° 0 mm 4 m/s 744 mmHg 62%
    09:00 +27°C° 0 mm 5 m/s 744 mmHg 57%
    10:00 +28°C° 0 mm 5 m/s 744 mmHg 54%
    11:00 +29°C° 0 mm 5 m/s 743 mmHg 51%
    12:00 +30°C° 0 mm 5 m/s 743 mmHg 48%
    13:00 +30°C° 0 mm 5 m/s 743 mmHg 47%
    14:00 +30°C° 0 mm 4 m/s 743 mmHg 46%
    15:00 +32°C° 0 mm 4 m/s 742 mmHg 44%
    16:00 +30°C° 0 mm 4 m/s 742 mmHg 48%
    17:00 +30°C° 0 mm 3 m/s 742 mmHg 51%
    18:00 +29°C° 0 mm 3 m/s 742 mmHg 54%
    19:00 +28°C° 0,1 mm 3 m/s 742 mmHg 56%
    20:00 +26°C° 0,1 mm 3 m/s 742 mmHg 58%
    21:00 +25°C° 0,1 mm 3 m/s 742 mmHg 59%
    22:00 +24°C° 0 mm 3 m/s 741 mmHg 60%
    23:00 +24°C° 0 mm 3 m/s 741 mmHg 61%
    Arată mai mult